Location: Dumpton Point
(51.3500°N, 1.4433°E)
Time: 03:35:35
(UTC+00:00)

Altair - Pass Details

Date: 09 October 2022
Orbit: 1501 x 1682 km, 47.2° (Epoch: 04 December)

Event Time Altitude Azimuth Distance (km) Brightness Sun altitude
Rises 10:16:17 0° 288° (WNW) 4,890 9.8 29.5°
Reaches altitude 10° 10:20:09 10° 276° (W) 3,919 9.5 29.7°
Maximum altitude 10:27:39 25° 227° (SW) 2,939 9.5 30.2°
Drops below altitude 10° 10:35:12 10° 178° (S) 3,936 11.0 30.6°
Sets 10:39:08 0° 166° (SSE) 4,914 11.3 30.8°
